GW4457 Weather Reports


Display with metric or nautical units.
time (UTC)temp
F
wind
direction
speed
MPH
gust
MPH
rain 1hr
in
rain 24hr
in
rain mn
in
humidity
%
barometer
mb
20260903161753 91 123 8.0 16.0 0.00 0.00 0.00 64 1020.5
20260903161248 90 161 8.0 14.0 0.00 0.00 0.00 62 1020.5
20260903160744 89 167 11.0 17.0 0.00 0.00 0.00 62 1020.5
20260903160242 89 105 11.0 16.0 0.00 0.00 0.00 64 1020.3
20260903155741 89 167 9.0 16.0 0.00 0.00 0.00 64 1020.5
20260903155236 90 121 12.0 15.0 0.00 0.00 0.00 61 1020.4
20260903154732 90 154 10.0 15.0 0.00 0.00 0.00 63 1020.7
20260903154228 90 127 11.0 15.0 0.00 0.00 0.00 60 1020.7
20260903153723 89 114 13.0 16.0 0.00 0.00 0.00 62 1020.6
20260903153219 89 135 12.0 16.0 0.00 0.00 0.00 60 1020.7
20260903152715 89 173 11.0 16.0 0.00 0.00 0.00 64 1020.7
20260903152211 89 132 11.0 14.0 0.00 0.00 0.00 65 1020.8
20260903151711 89 125 14.0 18.0 0.00 0.00 0.00 64 1021.2
20260903151206 89 91 11.0 17.0 0.00 0.00 0.00 63 1020.9
20260903150701 90 70 10.0 15.0 0.00 0.00 0.00 61 1020.9
20260903150156 89 106 15.0 21.0 0.00 0.00 0.00 62 1021.2
20260903145655 90 174 15.0 21.0 0.00 0.00 0.00 60 1021.0
20260903145150 89 103 8.0 23.0 0.00 0.00 0.00 64 1021.0
20260903144649 89 74 10.0 19.0 0.00 0.00 0.00 64 1021.0
20260903144145 89 116 10.0 19.0 0.00 0.00 0.00 62 1021.0
20260903143641 89 72 12.0 17.0 0.00 0.00 0.00 61 1021.1
20260903143137 90 119 11.0 19.0 0.00 0.00 0.00 62 1021.0
20260903142632 89 173 9.0 15.0 0.00 0.00 0.00 60 1021.1
20260903142129 89 117 11.0 14.0 0.00 0.00 0.00 63 1021.0
20260903141624 90 124 10.0 17.0 0.00 0.00 0.00 60 1021.0
20260903141119 90 89 9.0 14.0 0.00 0.00 0.00 61 1021.1
20260903140615 89 116 7.0 14.0 0.00 0.00 0.00 62 1020.9
20260903140110 89 89 13.0 15.0 0.00 0.00 0.00 60 1021.0
20260903135606 89 107 10.0 13.0 0.00 0.00 0.00 62 1021.1
20260903135101 89 79 14.0 18.0 0.00 0.00 0.00 60 1020.9
20260903134559 88 99 11.0 18.0 0.00 0.00 0.00 62 1021.0
20260903134056 88 143 11.0 13.0 0.00 0.00 0.00 63 1021.0
20260903133553 88 186 5.0 8.0 0.00 0.00 0.00 64 1021.0
20260903133049 88 106 11.0 17.0 0.00 0.00 0.00 62 1020.8
20260903132544 89 145 9.0 15.0 0.00 0.00 0.00 62 1020.9
20260903132039 89 78 7.0 13.0 0.00 0.00 0.00 62 1020.9
20260903131538 87 99 11.0 13.0 0.00 0.00 0.00 63 1020.8
20260903131037 88 105 13.0 14.0 0.00 0.00 0.00 64 1020.8
20260903130533 88 91 9.0 13.0 0.00 0.00 0.00 63 1020.8
20260903130032 87 120 8.0 13.0 0.00 0.00 0.00 65 1020.7
20260903125531 87 147 10.0 14.0 0.00 0.00 0.00 64 1020.7
20260903125026 88 264 11.0 15.0 0.00 0.00 0.00 62 1020.7
20260903124521 88 135 5.0 13.0 0.00 0.00 0.00 63 1020.8
20260903124020 86 146 5.0 11.0 0.00 0.00 0.00 65 1020.6
20260903123515 86 122 8.0 11.0 0.00 0.00 0.00 64 1020.6
20260903123013 86 86 5.0 8.0 0.00 0.00 0.00 65 1020.5
20260903122508 87 78 9.0 11.0 0.00 0.00 0.00 63 1020.6
20260903122008 87 60 7.0 10.0 0.00 0.00 0.00 64 1020.4
20260903121503 86 87 8.0 10.0 0.00 0.00 0.00 64 1020.6
20260903120958 86 87 4.0 9.0 0.00 0.00 0.00 65 1020.4
20260903120456 85 101 7.0 9.0 0.00 0.00 0.00 65 1020.4
20260903115956 85 64 8.0 9.0 0.00 0.00 0.00 66 1020.5
20260903115455 85 86 5.0 7.0 0.00 0.00 0.00 67 1020.4
20260903114955 84 76 9.0 10.0 0.00 0.00 0.00 68 1020.4
20260903114451 84 95 8.0 9.0 0.00 0.00 0.00 69 1020.4
20260903113946 84 52 7.0 9.0 0.00 0.00 0.00 70 1020.1
20260903113443 84 67 4.0 7.0 0.00 0.00 0.00 70 1020.1
20260903112938 83 57 6.0 9.0 0.00 0.00 0.00 70 1020.2
20260903112434 83 88 5.0 8.0 0.00 0.00 0.00 72 1020.2
20260903111933 82 85 6.0 9.0 0.00 0.00 0.00 73 1020.2
20260903111433 82 80 8.0 8.0 0.00 0.00 0.00 73 1020.2
20260903110929 82 82 4.0 8.0 0.00 0.00 0.00 74 1020.2
20260903110425 82 141 6.0 7.0 0.00 0.00 0.00 74 1020.3
20260903105919 81 82 7.0 9.0 0.00 0.00 0.00 75 1020.3
20260903105415 81 75 3.0 3.0 0.00 0.00 0.00 75 1020.3
20260903104914 80 88 4.0 8.0 0.00 0.00 0.00 76 1020.3
20260903104408 80 76 8.0 9.0 0.00 0.00 0.00 76 1020.3
20260903103906 80 57 6.0 7.0 0.00 0.00 0.00 77 1020.1
20260903103401 80 96 4.0 7.0 0.00 0.00 0.00 77 1020.0
20260903102856 79 86 3.0 7.0 0.00 0.00 0.00 78 1019.7
20260903102351 79 89 4.0 8.0 0.00 0.00 0.00 78 1019.9
20260903101850 79 47 3.0 8.0 0.00 0.00 0.00 78 1019.7
20260903101345 79 65 5.0 7.0 0.00 0.00 0.00 78 1019.6
20260903100841 79 67 5.0 8.0 0.00 0.00 0.00 79 1019.7
20260903100341 79 86 6.0 8.0 0.00 0.00 0.00 79 1019.6
20260903095832 79 62 3.0 8.0 0.00 0.00 0.00 79 1019.5
20260903095332 79 119 6.0 7.0 0.00 0.00 0.00 79 1019.6
20260903094827 79 76 4.0 7.0 0.00 0.00 0.00 78 1019.4
20260903094322 79 57 6.0 9.0 0.00 0.00 0.00 78 1019.4
20260903093818 79 106 5.0 10.0 0.00 0.00 0.00 78 1019.4
20260903093314 79 108 6.0 8.0 0.00 0.00 0.00 78 1019.4
20260903092814 79 74 5.0 9.0 0.00 0.00 0.00 78 1019.4
20260903092308 79 62 5.0 8.0 0.00 0.00 0.00 77 1019.4
20260903091807 79 76 5.0 8.0 0.00 0.00 0.00 77 1019.5
20260903091301 79 96 6.0 7.0 0.00 0.00 0.00 77 1019.3
20260903090757 79 100 7.0 8.0 0.00 0.00 0.00 77 1019.2
20260903090256 79 90 4.0 8.0 0.00 0.00 0.00 77 1019.3
20260903085755 79 57 5.0 10.0 0.00 0.00 0.00 77 1019.4
20260903085250 79 90 5.0 8.0 0.00 0.00 0.00 77 1019.3
20260903084748 79 72 4.0 8.0 0.00 0.00 0.00 77 1019.4
20260903084243 79 72 5.0 9.0 0.00 0.00 0.00 77 1019.3
20260903083738 79 92 9.0 9.0 0.00 0.00 0.00 78 1019.4
20260903083238 79 66 4.0 8.0 0.00 0.00 0.00 77 1019.2
20260903082737 79 88 7.0 9.0 0.00 0.00 0.00 78 1019.4
20260903082234 79 75 6.0 9.0 0.00 0.00 0.00 78 1019.4
20260903081734 79 24 6.0 7.0 0.00 0.00 0.00 78 1019.4
20260903081229 79 62 5.0 7.0 0.00 0.00 0.00 78 1019.3
20260903080725 79 64 5.0 8.0 0.00 0.00 0.00 78 1019.4
20260903080223 79 62 5.0 9.0 0.00 0.00 0.00 77 1019.3
20260903075722 79 55 5.0 7.0 0.00 0.00 0.00 78 1019.2
20260903075217 79 160 2.0 7.0 0.00 0.00 0.00 77 1019.2
20260903074716 79 69 4.0 7.0 0.00 0.00 0.00 77 1019.1
20260903074212 79 72 4.0 9.0 0.00 0.00 0.00 77 1019.3
20260903073707 79 89 4.0 7.0 0.00 0.00 0.00 76 1019.2
20260903073202 79 26 6.0 9.0 0.00 0.00 0.00 76 1019.2
20260903072658 79 50 5.0 8.0 0.00 0.00 0.00 77 1019.2
20260903072154 79 8 4.0 7.0 0.00 0.00 0.00 76 1019.3
20260903071650 79 33 4.0 10.0 0.00 0.00 0.00 77 1019.4
20260903071145 79 88 6.0 7.0 0.00 0.00 0.00 77 1019.3
20260903070640 79 70 6.0 9.0 0.00 0.00 0.00 77 1019.1
20260903070136 79 96 4.0 9.0 0.00 0.00 0.00 77 1019.3
20260903065635 79 72 6.0 8.0 0.00 0.00 0.00 78 1019.4
20260903065130 79 88 4.0 6.0 0.00 0.00 0.00 78 1019.4
20260903064629 79 63 6.0 7.0 0.00 0.00 0.00 78 1019.5
20260903064124 79 77 5.0 8.0 0.00 0.00 0.00 78 1019.4
20260903063620 79 70 3.0 8.0 0.00 0.00 0.00 79 1019.4
20260903063115 79 80 3.0 7.0 0.00 0.00 0.00 79 1019.4
20260903062611 79 73 5.0 7.0 0.00 0.00 0.00 80 1019.4
20260903062106 79 122 5.0 8.0 0.00 0.00 0.00 80 1019.5
20260903061601 79 106 4.0 7.0 0.00 0.00 0.00 80 1019.5
20260903061100 79 89 6.0 9.0 0.00 0.00 0.00 80 1019.5
20260903060600 79 68 5.0 8.0 0.00 0.00 0.00 80 1019.6
20260903060055 79 62 2.0 9.0 0.00 0.00 0.00 81 1019.4
20260903055553 79 78 4.0 6.0 0.00 0.00 0.00 81 1019.5
20260903055052 79 127 5.0 8.0 0.00 0.00 0.00 82 1019.6
20260903054547 79 122 4.0 8.0 0.00 0.00 0.00 82 1019.7
20260903054043 79 78 7.0 9.0 0.00 0.00 0.00 82 1019.8
20260903053538 79 141 4.0 7.0 0.00 0.00 0.00 82 1019.7
20260903053035 79 155 3.0 9.0 0.00 0.00 0.00 83 1019.7
20260903052530 79 56 4.0 7.0 0.00 0.00 0.00 83 1019.8
20260903052026 79 75 4.0 6.0 0.00 0.00 0.00 83 1019.9
20260903051525 79 83 6.0 7.0 0.00 0.00 0.00 83 1020.0
20260903051021 79 70 5.0 8.0 0.00 0.00 0.00 83 1020.0
20260903050520 79 95 5.0 7.0 0.00 0.00 0.00 84 1019.9
20260903050016 78 85 3.0 8.0 0.00 0.00 0.00 84 1020.1
20260903045515 79 59 2.0 7.0 0.00 0.00 0.00 84 1020.3
20260903045012 79 334 2.0 6.0 0.00 0.00 0.00 84 1020.2
20260903044508 79 75 4.0 6.0 0.00 0.00 0.00 84 1020.3
20260903044003 79 76 2.0 4.0 0.00 0.00 0.00 84 1020.4
20260903043459 79 90 4.0 6.0 0.00 0.00 0.00 84 1020.3
20260903042957 79 75 5.0 6.0 0.00 0.00 0.00 83 1020.7
20260903042453 79 85 4.0 6.0 0.00 0.00 0.00 83 1020.6
20260903041948 79 112 1.0 3.0 0.00 0.00 0.00 82 1020.6
20260903041445 79 99 2.0 3.0 0.00 0.00 0.00 83 1020.6
20260903040940 79 77 2.0 4.0 0.00 0.00 0.00 82 1020.8
20260903040439 79 90 2.0 4.0 0.00 0.00 0.00 82 1020.6
20260903035935 79 64 3.0 6.0 0.00 0.00 0.00 83 1020.6
20260903035431 79 92 2.0 4.0 0.00 0.00 0.00 82 1020.8
20260903034926 79 105 4.0 4.0 0.00 0.00 0.00 83 1021.1
20260903034426 79 101 4.0 6.0 0.00 0.00 0.00 83 1020.8
20260903033921 79 78 3.0 6.0 0.00 0.00 0.00 82 1020.9
20260903033416 79 90 3.0 4.0 0.00 0.00 0.00 82 1021.0
20260903032911 79 108 3.0 6.0 0.00 0.00 0.00 82 1020.9
20260903032408 80 69 4.0 4.0 0.00 0.00 0.00 81 1021.0
20260903031907 80 118 3.0 6.0 0.00 0.00 0.00 81 1020.9
20260903031407 80 129 5.0 6.0 0.00 0.00 0.00 81 1021.2
20260903030902 80 80 2.0 6.0 0.00 0.00 0.00 81 1021.0
20260903030358 80 91 4.0 4.0 0.00 0.00 0.00 81 1021.0
20260903025854 80 100 2.0 4.0 0.00 0.00 0.00 81 1021.0
20260903025349 80 78 2.0 4.0 0.00 0.00 0.00 81 1021.1
20260903024844 80 92 4.0 6.0 0.00 0.00 0.00 81 1020.9
20260903024344 80 69 4.0 4.0 0.00 0.00 0.00 82 1020.8
20260903023839 79 202 2.0 3.0 0.00 0.00 0.00 82 1021.0
20260903023334 79 90 3.0 3.0 0.00 0.00 0.00 82 1021.0
20260903022830 80 189 1.0 4.0 0.00 0.00 0.00 82 1021.0
20260903022329 79 60 4.0 4.0 0.00 0.00 0.00 82 1021.0
20260903021822 80 91 3.0 4.0 0.00 0.00 0.00 82 1021.0
20260903021318 80 105 3.0 4.0 0.00 0.00 0.00 82 1020.7
20260903020818 80 100 3.0 7.0 0.00 0.00 0.00 82 1020.8
20260903020313 80 88 5.0 6.0 0.00 0.00 0.00 82 1020.7
20260903015808 80 106 3.0 6.0 0.00 0.00 0.00 81 1020.9
20260903015305 80 163 2.0 7.0 0.00 0.00 0.00 81 1020.7
20260903014759 80 115 5.0 6.0 0.00 0.00 0.00 81 1020.7
20260903014258 80 61 4.0 7.0 0.00 0.00 0.00 81 1020.7
20260903013759 80 81 4.0 7.0 0.00 0.00 0.00 81 1020.6
20260903013257 80 57 5.0 7.0 0.00 0.00 0.00 81 1020.4
20260903012756 80 52 4.0 6.0 0.00 0.00 0.00 81 1020.4
20260903012251 80 61 4.0 7.0 0.00 0.00 0.00 81 1020.4
20260903011751 80 357 2.0 6.0 0.00 0.00 0.00 81 1020.2
20260903011250 80 76 4.0 6.0 0.00 0.00 0.00 81 1020.3
20260903010746 80 48 4.0 6.0 0.00 0.00 0.00 81 1020.3
20260903010241 80 65 3.0 6.0 0.00 0.00 0.00 81 1020.3
20260903005740 80 69 4.0 7.0 0.00 0.00 0.00 81 1020.3
20260903005235 80 83 6.0 8.0 0.00 0.00 0.00 80 1020.2
20260903004730 80 52 4.0 7.0 0.00 0.00 0.00 80 1020.2
20260903004226 80 78 4.0 7.0 0.00 0.00 0.00 79 1020.1
20260903003721 80 48 4.0 7.0 0.00 0.00 0.00 79 1019.8
20260903003217 80 48 5.0 8.0 0.00 0.00 0.00 78 1020.2
20260903002712 80 112 4.0 8.0 0.00 0.00 0.00 79 1020.4
20260903002211 80 86 4.0 7.0 0.00 0.00 0.00 78 1020.1
20260903001707 80 41 6.0 8.0 0.00 0.00 0.00 78 1020.2
20260903001206 80 120 4.0 9.0 0.00 0.00 0.00 78 1020.1
20260903000702 80 87 5.0 7.0 0.00 0.00 0.00 78 1020.1
20260903000204 80 115 7.0 9.0 0.00 0.00 0.00 78 1019.9
20260902235700 80 72 5.0 9.0 0.00 0.00 0.00 78 1020.0
20260902235156 80 81 6.0 8.0 0.00 0.00 0.00 78 1019.7
20260902234655 80 66 6.0 9.0 0.00 0.00 0.00 78 1019.9
20260902234154 80 77 6.0 8.0 0.00 0.00 0.00 78 1019.5
20260902233649 81 78 3.0 10.0 0.00 0.00 0.00 79 1019.8
20260902233149 80 84 6.0 9.0 0.00 0.00 0.00 79 1019.6
20260902232648 81 65 8.0 10.0 0.00 0.00 0.00 80 1019.8
20260902232147 81 71 6.0 9.0 0.00 0.00 0.00 81 1019.6
20260902231641 81 72 5.0 7.0 0.00 0.00 0.00 81 1019.7
20260902231136 80 47 3.0 8.0 0.00 0.00 0.00 82 1019.6
20260902230631 80 39 5.0 8.0 0.00 0.00 0.00 82 1019.6
20260902230130 80 62 4.0 4.0 0.00 0.00 0.00 83 1019.4
20260902225625 80 135 2.0 3.0 0.00 0.00 0.00 83 1019.6
20260902225124 80 179 2.0 3.0 0.00 0.00 0.00 83 1019.4
20260902224623 80 108 4.0 4.0 0.00 0.00 0.00 83 1019.4
20260902224119 80 71 3.0 6.0 0.00 0.00 0.00 83 1019.6
20260902223616 80 129 3.0 6.0 0.00 0.00 0.00 82 1019.5
20260902223114 81 171 4.0 7.0 0.00 0.00 0.00 81 1019.6
20260902222613 82 189 4.0 8.0 0.00 0.00 0.00 79 1019.5
20260902222112 83 198 6.0 10.0 0.00 0.00 0.00 78 1019.5
20260902221608 83 95 6.0 9.0 0.00 0.00 0.00 77 1019.5
20260902221108 83 77 5.0 9.0 0.00 0.00 0.00 77 1019.5
20260902220603 84 119 8.0 10.0 0.00 0.00 0.00 77 1019.6
20260902220058 84 255 4.0 9.0 0.00 0.00 0.00 76 1019.6
20260902215554 84 113 5.0 8.0 0.00 0.00 0.00 75 1019.5
20260902215049 84 127 6.0 13.0 0.00 0.00 0.00 74 1019.4
20260902214544 84 114 9.0 11.0 0.00 0.00 0.00 72 1019.5
20260902214043 85 114 5.0 9.0 0.00 0.00 0.00 72 1019.3
20260902213539 85 113 7.0 9.0 0.00 0.00 0.00 71 1019.4
20260902213038 85 84 4.0 7.0 0.00 0.00 0.00 71 1019.3
20260902212534 85 85 6.0 8.0 0.00 0.00 0.00 70 1019.4
20260902212029 85 192 1.0 4.0 0.00 0.00 0.00 70 1019.6
20260902211525 85 289 3.0 8.0 0.00 0.00 0.00 71 1019.5
20260902211020 85 69 4.0 10.0 0.00 0.00 0.00 71 1019.7
20260902210520 85 13 4.0 9.0 0.00 0.00 0.00 71 1019.8
20260902210019 85 81 4.0 13.0 0.00 0.00 0.00 71 1019.8
20260902205514 85 68 3.0 7.0 0.00 0.00 0.00 71 1019.8
20260902205009 85 96 8.0 9.0 0.00 0.00 0.00 72 1019.8
20260902204509 85 98 11.0 13.0 0.00 0.00 0.00 71 1020.0
20260902204004 85 72 7.0 14.0 0.00 0.00 0.00 72 1019.9
20260902203500 85 84 4.0 8.0 0.00 0.00 0.00 72 1019.9
20260902202958 85 85 4.0 7.0 0.00 0.00 0.00 72 1019.7
20260902202454 85 99 3.0 7.0 0.00 0.00 0.00 71 1019.7
20260902201951 85 60 4.0 9.0 0.00 0.00 0.00 72 1019.8
20260902201446 84 42 2.0 3.0 0.00 0.00 0.00 74 1019.9
20260902200946 83 54 2.0 4.0 0.00 0.00 0.00 74 1019.8
20260902200441 82 69 3.0 4.0 0.00 0.00 0.00 75 1019.9
20260902195936 82 281 1.0 6.0 0.00 0.00 0.00 76 1019.9
20260902195432 81 8 6.0 7.0 0.00 0.00 0.00 76 1020.3
20260902194932 81 24 5.0 7.0 0.00 0.00 0.00 76 1020.3
20260902194426 81 8 5.0 6.0 0.00 0.00 0.00 76 1020.3
20260902193920 81 7 5.0 7.0 0.00 0.00 0.00 76 1020.2
20260902193417 82 359 4.0 6.0 0.00 0.00 0.00 75 1020.5
20260902192915 82 222 1.0 4.0 0.00 0.00 0.00 77 1020.4
20260902192414 82 65 1.0 3.0 0.00 0.00 0.00 77 1020.4
20260902191913 82 59 3.0 4.0 0.00 0.00 0.00 77 1020.3
20260902191409 82 55 3.0 6.0 0.00 0.00 0.00 77 1020.4
20260902190904 82 315 2.0 3.0 0.00 0.00 0.00 76 1020.3
20260902190404 82 54 3.0 3.0 0.00 0.00 0.00 76 1020.4
20260902185900 82 226 1.0 1.0 0.00 0.00 0.00 77 1020.6
20260902185356 82 46 4.0 6.0 0.00 0.00 0.00 76 1020.7
20260902184851 83 107 3.0 6.0 0.00 0.00 0.00 77 1021.0
20260902184346 82 290 2.0 6.0 0.00 0.00 0.00 77 1020.7
20260902183842 82 305 1.0 2.0 0.00 0.00 0.00 76 1020.7
20260902183338 83 246 0.0 4.0 0.00 0.00 0.00 75 1020.7
20260902182834 83 125 4.0 4.0 0.00 0.00 0.00 76 1020.9
20260902182330 83 125 4.0 4.0 0.00 0.00 0.00 76 1020.7
20260902181826 83 84 2.0 2.0 0.00 0.00 0.00 75 1020.9
20260902181321 83 84 2.0 2.0 0.00 0.00 0.00 75 1020.6
20260902180815 83 98 3.0 4.0 0.00 0.00 0.00 75 1020.6
20260902180311 83 72 4.0 8.0 0.00 0.00 0.00 74 1020.8
20260902175806 83 59 2.0 4.0 0.00 0.00 0.00 74 1020.4
20260902175307 82 99 5.0 7.0 0.00 0.00 0.00 74 1020.7
20260902174757 84 17 8.0 8.0 0.00 0.00 0.00 72 1020.5
20260902174253 84 84 7.0 9.0 0.00 0.00 0.00 74 1020.7
20260902173748 83 82 3.0 8.0 0.00 0.00 0.00 74 1020.6
20260902173243 83 59 5.0 8.0 0.00 0.00 0.00 74 1020.6
20260902172738 83 90 4.0 7.0 0.00 0.00 0.00 74 1021.0
20260902172237 84 126 5.0 9.0 0.00 0.00 0.00 75 1021.1
20260902171732 84 77 9.0 11.0 0.00 0.00 0.00 75 1021.2
20260902171227 84 74 7.0 14.0 0.00 0.00 0.00 75 1021.4
20260902170724 84 102 11.0 13.0 0.00 0.00 0.00 74 1021.3
20260902170219 84 99 11.0 15.0 0.00 0.00 0.00 74 1021.2
20260902165714 84 197 5.0 9.0 0.00 0.00 0.00 75 1021.2
20260902165209 84 146 10.0 14.0 0.00 0.00 0.00 73 1021.3
20260902164708 85 128 7.0 13.0 0.00 0.00 0.00 72 1021.3
20260902164203 86 135 8.0 13.0 0.00 0.00 0.00 71 1021.1
20260902163658 86 131 8.0 11.0 0.00 0.00 0.00 70 1021.2
20260902163157 88 115 11.0 17.0 0.00 0.00 0.00 67 1021.0
20260902162655 91 165 12.0 17.0 0.00 0.00 0.00 64 1021.2